SL-14 DEB

Satellite information

Favourite Embed

Satellite Type and Status

DEBRISIN ORBIT

Key statistics

Satellite SL-14 DEB at a glance.

Uptime

12449

Days in orbit

Revolutions

≈ 12.9

Per day

Orbit

LEO

Low Earth Orbit

Inclination

82.9

Latest

Satellite identification and parameters

Extended collection of information and parameters for SL-14 DEB.

Object identification

Identified? True

Debris? True

Object name: SL-14 DEB

International designator: 1991-068AW

Object number (NORAD): 35400

Object ID (CCSDS): 35400

Country: COMMONWEALTH OF INDEPENDENT STATES (CIS)

Current information (Y/N): Y

RCS size: SMALL

Orbital parameters

Period: 111.986 minutes

Inclination: 82.9256 deg

SMA: 7696.073 km

Apoapsis: 1463.928 km

Periapsis: 1171.948 km

RAAN: 191.8882 deg

Eccentricy: 0.01896938

Argument of periapsis: 305.7562 deg

Mean anomaly: 236.5347 deg

Mean motion: 12.85875698 rev/day

Mean motion (dot): 0.00000033 rev/day2

B* drag term: 0.000085632796 1/REarth

Two-line elements (TLE)

Creation date: Sept. 21, 2025, 5:56 p.m.

Reference frame: TEME

Reference center: EARTH

Epoch: Sept. 21, 2025, 2:08 p.m. UTC

TLE line 0: 0 SL-14 DEB

TLE line 1: 1 35400U 91068AW 25264.58927292 .00000033 00000-0 85633-4 0 9994

TLE line 2: 2 35400 82.9256 191.8882 0189694 305.7562 236.5347 12.85875698273201

Live tracking on map

Real-time ground track for satellite SL-14 DEB.

In-orbit conjunctions

A list of the most updated potential collisions computed for object SL-14 DEB.

Target Orbit TCA Probability of collision Miss distance Type
COSMOS 2168 LEO 2024-06-08 09:26:29 0.0001171686 782.0 (m) PAYLOAD

Associated space launch

Second generation store-dump military communications satellite

SL-14 DEB was lifted into orbit during the mission ‘Tsiklon-3 | Strela-3 67 to 72’, on board a Tsiklon-3 space rocket.

The launch took place on Sept. 28, 1991, 7:05 a.m. from 32/2.

For more information about the launch, click the button.

Launch to space Tsiklon-3 | Strela-3 67 to 72
Tsiklon-3 | Strela-3 67 to 72

Agency: N/A

Status: Launch Successful

Launch date: Sept. 28, 1991, 7:05 a.m. UTC

Rocket: Tsiklon-3

Launch pad: 32/2

Location: Plesetsk Cosmodrome, Russian Federation

...

Latest news about this satellite

There are no fresh news available about this satellite. Check back as we update our databases every day.


Newsletter sign-up

Weekly statistics, charts and insights to help you stay on top of the space industry.